When you browse on this site, cookies collect data to enhance your experience and personalize the content and advertising you see.
Visit our Privacy Policy to learn more. By continuing to use the site, you agree to this use of cookies and data.
  • In Czech Republic
  • List of Countries
  • For 7 days
  • Water Temperature
  • Weather Map
  • Weather Widgets
  • user-avatar
    Login

    Hourly Weather Chiguayante

    Today, 25 May, Monday

    Time Temperature Precipitation Wind Pressure Humidity
    00:00 +13°C° 0 mm 1 mps 752 mmHg 95%
    01:00 +13°C° 0 mm 1 mps 751 mmHg 95%
    02:00 +13°C° 0 mm 1 mps 751 mmHg 95%
    03:00 +13°C° 0 mm 1 mps 751 mmHg 95%
    04:00 +12°C° 0 mm 1 mps 750 mmHg 95%
    05:00 +12°C° 0 mm 1 mps 750 mmHg 95%
    06:00 +12°C° 0 mm 1 mps 750 mmHg 94%
    07:00 +12°C° 0 mm 2 mps 750 mmHg 89%
    08:00 +14°C° 0 mm 2 mps 750 mmHg 76%
    09:00 +16°C° 0 mm 1 mps 750 mmHg 63%
    10:00 +20°C° 0 mm 1 mps 750 mmHg 50%
    11:00 +22°C° 0 mm 1 mps 749 mmHg 42%
    12:00 +24°C° 0 mm 1 mps 749 mmHg 34%
    13:00 +25°C° 0 mm 1 mps 748 mmHg 25%
    14:00 +24°C° 0 mm 1 mps 748 mmHg 29%
    15:00 +23°C° 0 mm 1 mps 748 mmHg 32%
    16:00 +22°C° 0 mm 1 mps 748 mmHg 35%
    17:00 +20°C° 0 mm 1 mps 748 mmHg 39%
    18:00 +18°C° 0 mm 1 mps 748 mmHg 44%
    19:00 +16°C° 0 mm 1 mps 748 mmHg 48%
    20:00 +15°C° 0 mm 1 mps 748 mmHg 49%
    21:00 +15°C° 0 mm 1 mps 748 mmHg 50%
    22:00 +15°C° 0 mm 1 mps 748 mmHg 50%
    23:00 +14°C° 0 mm 1 mps 748 mmHg 52%

    Tomorrow, 26 May, Tuesday

    Time Temperature Precipitation Wind Pressure Humidity
    00:00 +14°C° 0 mm 1 mps 748 mmHg 54%
    01:00 +13°C° 0 mm 1 mps 748 mmHg 56%
    02:00 +13°C° 0 mm 1 mps 747 mmHg 59%
    03:00 +13°C° 0 mm 1 mps 747 mmHg 62%
    04:00 +12°C° 0 mm 1 mps 747 mmHg 65%
    05:00 +12°C° 0 mm 1 mps 747 mmHg 67%
    06:00 +12°C° 0 mm 1 mps 747 mmHg 69%
    07:00 +12°C° 0 mm 1 mps 747 mmHg 71%
    08:00 +14°C° 0 mm 1 mps 747 mmHg 62%
    09:00 +18°C° 0 mm 1 mps 747 mmHg 53%
    10:00 +21°C° 0 mm 1 mps 748 mmHg 44%
    11:00 +22°C° 0 mm 1 mps 747 mmHg 41%
    12:00 +24°C° 0 mm 2 mps 747 mmHg 38%
    13:00 +26°C° 0 mm 2 mps 747 mmHg 35%
    14:00 +24°C° 0 mm 2 mps 747 mmHg 42%
    15:00 +21°C° 0 mm 2 mps 747 mmHg 49%
    16:00 +20°C° 0 mm 2 mps 747 mmHg 57%
    17:00 +18°C° 0 mm 2 mps 747 mmHg 65%
    18:00 +16°C° 0 mm 2 mps 747 mmHg 74%
    19:00 +14°C° 0 mm 2 mps 747 mmHg 82%
    20:00 +14°C° 0 mm 1 mps 748 mmHg 86%
    21:00 +13°C° 0 mm 1 mps 748 mmHg 89%
    22:00 +12°C° 0 mm 1 mps 748 mmHg 93%
    23:00 +12°C° 0 mm 1 mps 748 mmHg 94%

    Day after tomorrow, 27 May, Wednesday

    Time Temperature Precipitation Wind Pressure Humidity
    00:00 +12°C° 0 mm 1 mps 748 mmHg 94%
    01:00 +12°C° 0 mm 1 mps 748 mmHg 95%
    02:00 +12°C° 0 mm 1 mps 748 mmHg 95%
    03:00 +11°C° 0 mm 1 mps 748 mmHg 95%
    04:00 +11°C° 0 mm 1 mps 748 mmHg 96%
    05:00 +11°C° 0 mm 1 mps 748 mmHg 96%
    06:00 +11°C° 0 mm 1 mps 748 mmHg 97%
    07:00 +11°C° 0 mm 1 mps 749 mmHg 98%
    08:00 +12°C° 0 mm 1 mps 749 mmHg 93%
    09:00 +13°C° 0 mm 1 mps 749 mmHg 88%
    10:00 +15°C° 0 mm 1 mps 749 mmHg 84%
    11:00 +15°C° 0 mm 1 mps 749 mmHg 82%
    12:00 +15°C° 0 mm 1 mps 749 mmHg 81%
    13:00 +16°C° 0 mm 1 mps 749 mmHg 80%
    14:00 +15°C° 0 mm 1 mps 749 mmHg 82%
    15:00 +15°C° 0 mm 1 mps 749 mmHg 84%
    16:00 +14°C° 0 mm 1 mps 748 mmHg 86%
    17:00 +14°C° 0 mm 1 mps 748 mmHg 89%
    18:00 +13°C° 0 mm 1 mps 748 mmHg 92%
    19:00 +13°C° 0 mm 1 mps 748 mmHg 95%
    20:00 +12°C° 0 mm 1 mps 748 mmHg 95%
    21:00 +12°C° 0 mm 1 mps 748 mmHg 96%
    22:00 +12°C° 0 mm 2 mps 748 mmHg 97%
    23:00 +12°C° 0 mm 2 mps 748 mmHg 96%

    28 May, Thursday

    Time Temperature Precipitation Wind Pressure Humidity
    00:00 +12°C° 0 mm 2 mps 748 mmHg 95%
    01:00 +12°C° 0 mm 1 mps 748 mmHg 94%
    02:00 +11°C° 0 mm 1 mps 748 mmHg 92%
    03:00 +11°C° 0 mm 1 mps 748 mmHg 89%
    04:00 +11°C° 0 mm 1 mps 748 mmHg 87%
    05:00 +10°C° 0 mm 2 mps 748 mmHg 81%
    06:00 +9°C° 0 mm 2 mps 749 mmHg 76%
    07:00 +9°C° 0 mm 2 mps 750 mmHg 70%
    08:00 +10°C° 0 mm 2 mps 750 mmHg 66%
    09:00 +11°C° 0 mm 1 mps 750 mmHg 62%
    10:00 +12°C° 0 mm 1 mps 751 mmHg 57%
    11:00 +13°C° 0 mm 1 mps 751 mmHg 55%
    12:00 +13°C° 0 mm 1 mps 751 mmHg 52%
    13:00 +14°C° 0 mm 1 mps 751 mmHg 49%
    14:00 +14°C° 0 mm 2 mps 751 mmHg 52%
    15:00 +14°C° 0 mm 2 mps 751 mmHg 54%
    16:00 +12°C° 0 mm 3 mps 751 mmHg 57%
    17:00 +11°C° 0 mm 3 mps 752 mmHg 64%
    18:00 +9°C° 0 mm 3 mps 752 mmHg 71%
    19:00 +7°C° 0 mm 3 mps 752 mmHg 78%
    20:00 +6°C° 0 mm 4 mps 753 mmHg 77%
    21:00 +5°C° 0 mm 4 mps 753 mmHg 75%
    22:00 +5°C° 0 mm 4 mps 754 mmHg 74%
    23:00 +5°C° 0 mm 4 mps 754 mmHg 73%

    29 May, Friday

    Time Temperature Precipitation Wind Pressure Humidity
    00:00 +5°C° 0 mm 4 mps 754 mmHg 72%
    01:00 +5°C° 0 mm 4 mps 754 mmHg 72%
    02:00 +4°C° 0 mm 3 mps 754 mmHg 75%
    03:00 +4°C° 0 mm 2 mps 754 mmHg 79%
    04:00 +4°C° 0 mm 2 mps 754 mmHg 83%
    05:00 +4°C° 0 mm 2 mps 754 mmHg 83%
    06:00 +3°C° 0 mm 2 mps 754 mmHg 84%
    07:00 +3°C° 0 mm 2 mps 755 mmHg 84%
    08:00 +4°C° 0 mm 3 mps 755 mmHg 72%
    09:00 +7°C° 0 mm 3 mps 755 mmHg 60%
    10:00 +8°C° 0 mm 4 mps 755 mmHg 47%
    11:00 +10°C° 0 mm 4 mps 755 mmHg 42%
    12:00 +11°C° 0 mm 4 mps 754 mmHg 37%
    13:00 +13°C° 0 mm 5 mps 754 mmHg 33%
    14:00 +12°C° 0 mm 4 mps 754 mmHg 35%
    15:00 +11°C° 0 mm 4 mps 753 mmHg 38%
    16:00 +10°C° 0 mm 4 mps 753 mmHg 41%
    17:00 +8°C° 0 mm 3 mps 753 mmHg 51%
    18:00 +5°C° 0 mm 3 mps 753 mmHg 61%
    19:00 +4°C° 0 mm 2 mps 754 mmHg 70%
    20:00 +4°C° 0 mm 2 mps 754 mmHg 73%
    21:00 +3°C° 0 mm 2 mps 754 mmHg 76%
    22:00 +3°C° 0 mm 2 mps 754 mmHg 80%
    23:00 +4°C° 0 mm 1 mps 754 mmHg 81%

    30 May, Saturday

    Time Temperature Precipitation Wind Pressure Humidity
    00:00 +3°C° 0 mm 1 mps 754 mmHg 82%
    01:00 +3°C° 0 mm 1 mps 754 mmHg 83%
    02:00 +3°C° 0 mm 1 mps 754 mmHg 84%
    03:00 +3°C° 0 mm 1 mps 754 mmHg 85%
    04:00 +2°C° 0 mm 1 mps 754 mmHg 86%
    05:00 +2°C° 0 mm 1 mps 754 mmHg 86%
    06:00 +2°C° 0 mm 1 mps 755 mmHg 87%
    07:00 +2°C° 0 mm 1 mps 755 mmHg 87%
    08:00 +5°C° 0 mm 1 mps 755 mmHg 75%
    09:00 +7°C° 0 mm 1 mps 756 mmHg 62%
    10:00 +10°C° 0 mm 1 mps 756 mmHg 50%
    11:00 +11°C° 0 mm 1 mps 756 mmHg 45%
    12:00 +13°C° 0 mm 1 mps 756 mmHg 39%
    13:00 +14°C° 0 mm 1 mps 756 mmHg 34%
    14:00 +13°C° 0 mm 1 mps 756 mmHg 38%
    15:00 +12°C° 0 mm 1 mps 756 mmHg 42%
    16:00 +11°C° 0 mm 1 mps 755 mmHg 47%
    17:00 +9°C° 0 mm 1 mps 756 mmHg 55%
    18:00 +8°C° 0 mm 1 mps 756 mmHg 63%
    19:00 +6°C° 0 mm 1 mps 756 mmHg 71%
    20:00 +6°C° 0 mm 1 mps 756 mmHg 74%
    21:00 +5°C° 0 mm 1 mps 756 mmHg 76%
    22:00 +5°C° 0 mm 1 mps 756 mmHg 79%
    23:00 +5°C° 0 mm 1 mps 756 mmHg 80%
    Show more